New Bedford, MA

1:44 PM EDT on April 30, 2017 (GMT -0400)
New Bedford Regional

Weather History for KEWB - January, 2015

Change the Weather History Date:

Wednesday, January 14, 2015

  Actual Average Record
Temperature  
Mean Temperature 23 °F -  
Max Temperature 27 °F 36 °F 61 °F (2013)
Min Temperature 19 °F 20 °F -4 °F (1988)
Degree Days  
Heating Degree Days 42    
Moisture  
Dew Point 14 °F    
Average Humidity 70    
Maximum Humidity 88    
Minimum Humidity 57    
Precipitation  
Precipitation 0.00 in - - ()
Sea Level Pressure  
Sea Level Pressure 30.37 in    
Wind  
Wind Speed 6 mph (NNW)    
Max Wind Speed 8 mph    
Max Gust Speed -    
Visibility 10 miles    
Events Snow    
Averages and records for this station are not official NWS values.
T = Trace of Precipitation, MM = Missing Value Source: NWS Daily Summary

Daily Weather History Graph

Daily Weather History Graph

Search for Another Location

Airport or City:

Trip Planner

Search our weather history database for the weather conditions in past years. The results will help you decide how hot, cold, wet, or windy it might be!

Date:

Astronomy

Jan. 14, 2015 Rise Set
Actual Time 7:08 AM EST 4:37 PM EST
Civil Twilight 6:38 AM EST 5:07 PM EST
Nautical Twilight 6:03 AM EST 5:42 PM EST
Astronomical Twilight 5:30 AM EST 6:15 PM EST
Moon 12:57 AM EST (1/14) 11:51 AM EST (1/14)
Length of Visible Light 10h 29m
Length of Day
9h 28m
Last Quarter, 37% of the Moon is Illuminated
Jan 14
Last Quarter
Jan 20
New
Jan 26
First Quarter
Feb 3
Full
Feb 11
Last Quarter

Hourly Weather History & Observations

Time (EST) Temp. Windchill Dew Point Humidity Pressure Visibility Wind Dir Wind Speed Gust Speed Precip Events Conditions
12:53 AM 19.0 °F 11.1 °F 6.1 °F 57% 30.58 in 10.0 mi NNW 5.8 mph - N/A   Overcast
1:53 AM 19.0 °F 10.0 °F 6.1 °F 57% 30.58 in 10.0 mi Variable 6.9 mph - N/A   Overcast
2:53 AM 19.0 °F 11.1 °F 7.0 °F 59% 30.56 in 10.0 mi North 5.8 mph - N/A   Overcast
3:53 AM 19.0 °F 12.3 °F 8.1 °F 62% 30.54 in 10.0 mi Variable 4.6 mph - N/A   Overcast
4:53 AM 19.0 °F 12.3 °F 8.1 °F 62% 30.52 in 10.0 mi North 4.6 mph - N/A   Overcast
5:53 AM 19.0 °F 13.9 °F 9.0 °F 65% 30.51 in 10.0 mi NW 3.5 mph - N/A   Overcast
6:53 AM 19.0 °F 10.0 °F 9.0 °F 65% 30.50 in 10.0 mi North 6.9 mph - N/A   Overcast
7:53 AM 19.9 °F 13.4 °F 10.0 °F 65% 30.48 in 10.0 mi Variable 4.6 mph - N/A   Overcast
8:53 AM 21.2 °F 13.6 °F 10.4 °F 63% 30.46 in 10.0 mi NNW 5.8 mph - N/A   Overcast
9:53 AM 23.0 °F 15.8 °F 12.0 °F 63% 30.46 in 10.0 mi Variable 5.8 mph - N/A   Overcast
10:53 AM 23.0 °F 14.7 °F 12.9 °F 65% 30.42 in 10.0 mi North 6.9 mph - N/A   Overcast
11:43 AM 24.1 °F 16.0 °F 12.9 °F 62% 30.36 in 10.0 mi NNW 6.9 mph - N/A   Overcast
11:53 AM 24.1 °F 16.0 °F 14.0 °F 65% 30.36 in 10.0 mi North 6.9 mph - N/A   Overcast
12:53 PM 25.0 °F 17.1 °F 15.1 °F 66% 30.35 in 10.0 mi NNW 6.9 mph - N/A   Overcast
1:24 PM 26.1 °F 20.5 °F 15.1 °F 63% 30.32 in 10.0 mi Variable 4.6 mph - N/A   Overcast
1:53 PM 26.1 °F 18.4 °F 16.0 °F 66% 30.32 in 10.0 mi NNW 6.9 mph - N/A   Overcast
2:53 PM 27.0 °F 20.5 °F 17.1 °F 66% 30.31 in 10.0 mi North 5.8 mph - N/A   Overcast
3:53 PM 27.0 °F 20.5 °F 17.1 °F 66% 30.29 in 10.0 mi North 5.8 mph - N/A   Overcast
4:53 PM 26.1 °F 19.4 °F 19.0 °F 75% 30.27 in 10.0 mi North 5.8 mph - N/A   Overcast
5:53 PM 24.8 °F 17.9 °F 19.4 °F 80% 30.26 in 10.0 mi NNW 5.8 mph - N/A   Overcast
6:00 PM 24.1 °F 16.0 °F 19.0 °F 81% 30.26 in 8.0 mi Variable 6.9 mph - 0.00 in Snow Light Snow
6:53 PM 24.1 °F 16.0 °F 19.0 °F 81% 30.25 in 10.0 mi NNW 6.9 mph - 0.00 in   Overcast
7:53 PM 23.0 °F 14.7 °F 19.0 °F 85% 30.23 in 5.0 mi Variable 6.9 mph - 0.00 in Snow Light Snow
8:53 PM 23.0 °F 13.9 °F 19.9 °F 88% 30.21 in 7.0 mi NNW 8.1 mph - 0.00 in   Overcast
9:53 PM 24.1 °F 15.2 °F 21.0 °F 88% 30.18 in 9.0 mi North 8.1 mph - 0.00 in   Overcast
10:53 PM 25.0 °F 16.3 °F 21.9 °F 88% 30.15 in 10.0 mi North 8.1 mph - N/A   Overcast
11:53 PM 26.1 °F 17.6 °F 23.0 °F 88% 30.13 in 10.0 mi NNW 8.1 mph - N/A   Overcast